Alma, MI

5:26 PM EST on November 20, 2019 (GMT -0500)
Gratiot Community

Weather History for KAMN - June, 2019

Change the Weather History Date:

Wednesday, June 12, 2019

  Actual Average Record
Temperature  
Mean Temperature 66 °F -  
Max Temperature 78 °F 78 °F 95 °F (1956)
Min Temperature 55 °F 55 °F 40 °F (1980)
Cooling Degree Days 2    
Growing Degree Days 16 (Base 50)    
Moisture  
Dew Point 50 °F    
Average Humidity 58    
Maximum Humidity 88    
Minimum Humidity 28    
Precipitation  
Precipitation 0.00 in - - ()
Sea Level Pressure  
Sea Level Pressure 29.94 in    
Wind  
Wind Speed 5 mph (SSW)    
Max Wind Speed 15 mph    
Max Gust Speed 21 mph    
Visibility 10 miles    
Events Rain    
Averages and records for this station are not official NWS values.
T = Trace of Precipitation, MM = Missing Value Source: NWS Daily Summary

Daily Weather History Graph

Daily Weather History Graph

Search for Another Location

Airport or City:

Astronomy

Jun. 12, 2019 Rise Set
Actual Time 5:58 AM EDT 9:19 PM EDT
Civil Twilight 5:22 AM EDT 9:54 PM EDT
Nautical Twilight 4:36 AM EDT 10:41 PM EDT
Astronomical Twilight 3:39 AM EDT 11:38 PM EDT
Moon 4:16 PM EDT (6/12) 3:22 AM EDT (6/12)
Length of Visible Light 16h 32m
Length of Day
15h 21m
Waxing Gibbous, 76% of the Moon is Illuminated
Jun 12
Waxing Gibbous
Jun 17
Full
Jun 25
Last Quarter
Jul 2
New
Jul 9
First Quarter

Hourly Weather History & Observations

Time (EDT) Temp. Dew Point Humidity Pressure Visibility Wind Dir Wind Speed Gust Speed Precip Events Conditions
12:15 AM 55.0 °F 49.6 °F 82% 30.09 in 10.0 mi Calm Calm - N/A   Clear
12:38 AM 55.4 °F 51.4 °F 87% 30.08 in 10.0 mi West 3.5 mph - N/A   Mostly Cloudy
12:56 AM 56.7 °F 53.1 °F 88% 30.08 in 10.0 mi Calm Calm - N/A   Overcast
1:15 AM 59.0 °F 54.5 °F 85% 30.07 in 10.0 mi Calm Calm - N/A   Overcast
1:16 AM 59.0 °F 54.5 °F 85% 30.07 in 10.0 mi Calm Calm - N/A   Overcast
1:35 AM 58.3 °F 53.1 °F 83% 30.06 in 10.0 mi Calm Calm - N/A   Mostly Cloudy
1:59 AM 58.1 °F 54.1 °F 87% 30.06 in 10.0 mi Calm Calm - N/A   Clear
2:17 AM 58.3 °F 54.5 °F 87% 30.06 in 10.0 mi South 4.6 mph - N/A   Clear
2:35 AM 58.8 °F 54.5 °F 86% 30.06 in 10.0 mi Calm Calm - N/A   Clear
2:55 AM 60.3 °F 50.9 °F 71% 30.05 in 10.0 mi South 4.6 mph - N/A   Clear
3:15 AM 60.6 °F 49.3 °F 66% 30.05 in 10.0 mi South 4.6 mph - N/A   Clear
3:38 AM 60.4 °F 48.9 °F 66% 30.04 in 10.0 mi South 4.6 mph - N/A   Clear
3:55 AM 59.9 °F 49.3 °F 68% 30.04 in 10.0 mi South 4.6 mph - N/A   Clear
4:15 AM 59.9 °F 47.8 °F 64% 30.03 in 10.0 mi South 4.6 mph - N/A   Clear
4:16 AM 59.9 °F 48.0 °F 65% 30.03 in 10.0 mi South 4.6 mph - N/A   Clear
4:35 AM 59.0 °F 48.2 °F 67% 30.03 in 10.0 mi South 3.5 mph - N/A   Clear
4:36 AM 59.0 °F 48.2 °F 67% 30.03 in 10.0 mi South 3.5 mph - N/A   Clear
4:59 AM 59.2 °F 48.2 °F 67% 30.03 in 10.0 mi South 5.8 mph - N/A   Clear
5:17 AM 59.4 °F 47.8 °F 66% 30.03 in 10.0 mi South 5.8 mph - N/A   Clear
5:35 AM 59.0 °F 48.2 °F 67% 30.03 in 10.0 mi South 4.6 mph - N/A   Clear
5:55 AM 59.0 °F 48.2 °F 67% 30.02 in 10.0 mi South 5.8 mph - N/A   Clear
5:56 AM 59.0 °F 48.2 °F 67% 30.02 in 10.0 mi South 6.9 mph - N/A   Clear
6:15 AM 58.6 °F 48.0 °F 68% 30.02 in 10.0 mi South 5.8 mph - N/A   Clear
6:20 AM 58.6 °F 48.2 °F 68% 30.02 in 10.0 mi South 3.5 mph - N/A   Clear
6:38 AM 59.0 °F 48.2 °F 67% 30.02 in 10.0 mi South 4.6 mph - N/A   Clear
6:56 AM 59.7 °F 48.7 °F 67% 30.02 in 10.0 mi South 6.9 mph - N/A   Clear
7:15 AM 60.8 °F 49.1 °F 65% 30.02 in 10.0 mi South 6.9 mph - N/A   Clear
7:35 AM 62.1 °F 49.3 °F 63% 30.01 in 10.0 mi South 6.9 mph - N/A   Clear
7:59 AM 62.1 °F 50.0 °F 65% 30.01 in 10.0 mi South 6.9 mph - N/A   Clear
8:17 AM 62.8 °F 50.2 °F 63% 30.01 in 10.0 mi South 8.1 mph - N/A   Clear
8:35 AM 64.4 °F 51.1 °F 62% 30.01 in 10.0 mi South 8.1 mph - N/A   Clear
8:55 AM 65.3 °F 51.3 °F 60% 30.00 in 10.0 mi South 8.1 mph - N/A   Clear
9:15 AM 68.0 °F 51.3 °F 55% 29.99 in 10.0 mi South 10.4 mph - N/A   Scattered Clouds
9:38 AM 67.6 °F 50.5 °F 54% 29.99 in 10.0 mi SSW 8.1 mph - N/A   Clear
9:56 AM 68.4 °F 51.3 °F 54% 29.98 in 10.0 mi SSW 10.4 mph - N/A   Mostly Cloudy
10:15 AM 68.9 °F 51.8 °F 54% 29.98 in 10.0 mi South 9.2 mph - N/A   Mostly Cloudy
10:16 AM 68.9 °F 51.8 °F 54% 29.98 in 10.0 mi South 6.9 mph - N/A   Mostly Cloudy
10:35 AM 70.7 °F 52.3 °F 52% 29.98 in 10.0 mi SW 6.9 mph - N/A   Mostly Cloudy
10:36 AM 70.9 °F 52.2 °F 51% 29.98 in 10.0 mi SSW 8.1 mph - N/A   Mostly Cloudy
10:59 AM 72.3 °F 50.4 °F 46% 29.97 in 10.0 mi SSW 10.4 mph - N/A   Mostly Cloudy
11:17 AM 73.9 °F 50.0 °F 43% 29.97 in 10.0 mi WSW 8.1 mph - N/A   Mostly Cloudy
11:35 AM 74.1 °F 50.2 °F 43% 29.96 in 10.0 mi SW 5.8 mph - N/A   Mostly Cloudy
11:55 AM 74.8 °F 52.0 °F 45% 29.96 in 10.0 mi WSW 4.6 mph - N/A   Scattered Clouds
11:56 AM 74.8 °F 52.2 °F 45% 29.96 in 10.0 mi WSW 5.8 mph - N/A   Scattered Clouds
12:15 PM 75.6 °F 50.7 °F 42% 29.95 in 10.0 mi Calm Calm - N/A   Mostly Cloudy
12:20 PM 75.4 °F 52.0 °F 44% 29.95 in 10.0 mi WNW 4.6 mph - N/A   Mostly Cloudy
12:38 PM 75.2 °F 50.5 °F 42% 29.94 in 10.0 mi WNW 4.6 mph - N/A   Scattered Clouds
12:56 PM 75.4 °F 50.9 °F 42% 29.93 in 10.0 mi WNW 4.6 mph - N/A   Mostly Cloudy
1:15 PM 75.2 °F 46.2 °F 36% 29.92 in 10.0 mi South 9.2 mph 17.3 mph N/A   Mostly Cloudy
1:35 PM 77.0 °F 46.2 °F 34% 29.91 in 10.0 mi SSW 9.2 mph - N/A   Scattered Clouds
1:59 PM 76.3 °F 46.8 °F 35% 29.90 in 10.0 mi SSW 9.2 mph - N/A   Scattered Clouds
2:17 PM 77.4 °F 43.5 °F 30% 29.90 in 10.0 mi South 15.0 mph 19.6 mph N/A   Mostly Cloudy
2:35 PM 78.4 °F 44.6 °F 30% 29.89 in 10.0 mi South 11.5 mph 16.1 mph N/A   Scattered Clouds
2:36 PM 78.4 °F 44.6 °F 30% 29.89 in 10.0 mi South 11.5 mph 16.1 mph N/A   Scattered Clouds
2:55 PM 78.4 °F 43.2 °F 28% 29.88 in 10.0 mi South 11.5 mph - N/A   Scattered Clouds
2:56 PM 78.1 °F 42.4 °F 28% 29.88 in 10.0 mi South 11.5 mph 17.3 mph N/A   Scattered Clouds
3:15 PM 77.0 °F 42.8 °F 29% 29.88 in 10.0 mi South 11.5 mph 19.6 mph N/A   Mostly Cloudy
3:20 PM 77.2 °F 42.1 °F 29% 29.87 in 10.0 mi South 8.1 mph 19.6 mph N/A   Mostly Cloudy
3:38 PM 77.9 °F 43.3 °F 29% 29.87 in 10.0 mi South 12.7 mph 19.6 mph N/A   Scattered Clouds
3:56 PM 77.9 °F 44.2 °F 30% 29.87 in 10.0 mi South 12.7 mph 20.7 mph N/A   Scattered Clouds
4:15 PM 75.9 °F 45.5 °F 34% 29.86 in 10.0 mi South 11.5 mph 16.1 mph N/A   Scattered Clouds
4:35 PM 75.4 °F 45.0 °F 34% 29.86 in 10.0 mi South 9.2 mph 16.1 mph N/A   Scattered Clouds
4:36 PM 75.4 °F 45.3 °F 34% 29.86 in 10.0 mi SSW 10.4 mph 16.1 mph N/A   Scattered Clouds
4:59 PM 74.7 °F 44.8 °F 34% 29.85 in 10.0 mi South 9.2 mph - N/A   Clear
5:17 PM 74.7 °F 45.9 °F 36% 29.85 in 10.0 mi South 11.5 mph 16.1 mph N/A   Scattered Clouds
5:35 PM 73.9 °F 46.0 °F 37% 29.84 in 10.0 mi South 12.7 mph - N/A   Scattered Clouds
5:36 PM 73.8 °F 45.9 °F 37% 29.84 in 10.0 mi South 12.7 mph - N/A   Scattered Clouds
5:55 PM 73.4 °F 46.4 °F 38% 29.84 in 10.0 mi SSW 8.1 mph - N/A   Mostly Cloudy
5:56 PM 73.4 °F 46.6 °F 38% 29.85 in 10.0 mi SW 10.4 mph 20.7 mph N/A   Mostly Cloudy
6:15 PM 66.4 °F 51.6 °F 59% 29.85 in 10.0 mi WNW 11.5 mph 19.6 mph N/A   Mostly Cloudy
6:20 PM 65.7 °F 52.2 °F 62% 29.85 in 10.0 mi WNW 8.1 mph 17.3 mph N/A   Mostly Cloudy
6:38 PM 64.9 °F 53.6 °F 67% 29.85 in 10.0 mi NW 8.1 mph - N/A   Scattered Clouds
6:56 PM 65.8 °F 53.6 °F 65% 29.85 in 10.0 mi NW 8.1 mph - N/A   Scattered Clouds
7:15 PM 65.5 °F 52.9 °F 64% 29.85 in 10.0 mi NW 6.9 mph - N/A   Clear
7:35 PM 65.3 °F 52.7 °F 64% 29.85 in 10.0 mi NW 5.8 mph - N/A   Scattered Clouds
7:59 PM 64.6 °F 52.9 °F 66% 29.85 in 10.0 mi NNW 4.6 mph - N/A   Mostly Cloudy
8:17 PM 64.4 °F 52.7 °F 66% 29.85 in 10.0 mi NW 6.9 mph - N/A   Mostly Cloudy
8:35 PM 63.9 °F 53.1 °F 68% 29.84 in 10.0 mi North 8.1 mph - N/A   Scattered Clouds
8:36 PM 63.9 °F 52.9 °F 67% 29.83 in 10.0 mi North 8.1 mph - N/A   Scattered Clouds
8:55 PM 63.5 °F 52.7 °F 68% 29.84 in 10.0 mi NNE 5.8 mph - N/A   Clear
8:56 PM 63.5 °F 52.7 °F 68% 29.84 in 10.0 mi NNE 5.8 mph - N/A   Clear
9:15 PM 62.8 °F 53.8 °F 72% 29.83 in 7.0 mi North 5.8 mph - N/A   Clear
9:38 PM 62.4 °F 53.8 °F 73% 29.82 in 10.0 mi NNE 8.1 mph - N/A   Clear
9:56 PM 62.2 °F 54.1 °F 75% 29.83 in 10.0 mi NNE 4.6 mph - N/A   Mostly Cloudy
10:15 PM 62.1 °F 54.5 °F 76% 29.82 in 10.0 mi NNE 4.6 mph - N/A   Scattered Clouds
10:35 PM 61.9 °F 54.7 °F 77% 29.81 in 10.0 mi NNE 5.8 mph - N/A   Mostly Cloudy
10:59 PM 62.1 °F 55.2 °F 78% 29.82 in 10.0 mi Calm Calm - N/A Rain Light Rain
11:17 PM 61.0 °F 55.6 °F 82% 29.81 in 7.0 mi NNE 5.8 mph - N/A Rain Light Rain
11:35 PM 60.4 °F 56.3 °F 86% 29.80 in 10.0 mi NNE 6.9 mph - N/A   Mostly Cloudy
11:55 PM 60.3 °F 56.3 °F 87% 29.79 in 10.0 mi NE 9.2 mph - N/A   Mostly Cloudy